Regional Weather Roundup
Issued by NWS

Home | Current Version | Previous Version | Graphics & Text | Print | Product List | Glossary On
Versions: 1 2 3 4 5 6 7 8 9 10 11 12 13 14 15 16 17 18 19 20 21 22 23 24 25 26 27 28 29 30 31 32 33 34 35 36 37 38 39 40 41 42 43 44 45 46 47 48 49
000
ASUS45 KCYS 291210
RWRWY

WYOMING REGIONAL WEATHER ROUNDUP
NATIONAL WEATHER SERVICE CHEYENNE WY
500 AM MST THU JAN 29 2015

NOTE:  "FAIR" INDICATES FEW OR NO CLOUDS BELOW 12,000 FEET
WITH NO SIGNIFICANT WEATHER AND/OR OBSTRUCTIONS TO VISIBILITY.

WYZ001-291300-
YELLOWSTONE NATIONAL PARK

CITY           SKY/WX    TMP DP  RH WIND       PRES   REMARKS
LK YELLOWSTONE   N/A     15  11  83 CALM      30.44R
6HR MIN TEMP:  15; 6HR MAX TEMP:  24;

W YELLOWSTONE  NOT AVBL

$$
WYZ002>013-054>058-071-098>099-291300-
NORTHERN WYOMING

CITY           SKY/WX    TMP DP  RH WIND       PRES   REMARKS
JACKSON        CLOUDY    18  18 100 N10       30.44R WCI   6
CODY           FAIR      30  27  86 CALM      30.40S
GREYBULL       FAIR      29  29 100 SE5       30.44R WCI  24
6HR MIN TEMP:  29; 6HR MAX TEMP:  32;

WORLAND        MOCLDY    31  26  82 SE8       30.42S WCI  23
6HR MIN TEMP:  30; 6HR MAX TEMP:  35;

SHERIDAN       FAIR      24  19  81 SW3       30.42S
6HR MIN TEMP:  23; 6HR MAX TEMP:  36;

BUFFALO        FAIR      26  19  74 SW8       30.42S WCI  18
6HR MIN TEMP:  25; 6HR MAX TEMP:  33;

GILLETTE       FAIR      25  19  78 SW3       30.42S
6HR MIN TEMP:  21; 6HR MAX TEMP:  28;

HULETT           N/A    N/A N/A N/A MISG        N/A
NEWCASTLE      FAIR      27  21  80 NW8       30.43R WCI  18

$$
WYZ014>020-022>026-101>103-291300-
CENTRAL WYOMING

CITY           SKY/WX    TMP DP  RH WIND       PRES   REMARKS
BIG PINEY      FAIR      14  11  87 CALM      30.42R
6HR MIN TEMP:  14; 6HR MAX TEMP:  26;

PINEDALE       FAIR      14  14 100 SW3       30.43R
DUBOIS         FAIR      19  14  79 W13       30.40S WCI   7
LANDER         FAIR      33  29  85 NW3       30.40R
6HR MIN TEMP:  31; 6HR MAX TEMP:  38;

RIVERTON       FAIR      33  27  78 CALM      30.41S
6HR MIN TEMP:  31; 6HR MAX TEMP:  37;

CASPER         CLOUDY    29  25  85 N5        30.43S WCI  24
6HR MIN TEMP:  29; 6HR MAX TEMP:  34;

DOUGLAS        MOCLDY    29  22  75 NW5       30.44S WCI  24
6HR MIN TEMP:  29; 6HR MAX TEMP:  36;


$$
WYZ021-027>030-104>119-291300-
SOUTHERN WYOMING

CITY           SKY/WX    TMP DP  RH WIND       PRES   REMARKS
EVANSTON       CLOUDY    30  28  92 E5        30.39F WCI  25
6HR MIN TEMP:  30; 6HR MAX TEMP:  32;

KEMMERER       FAIR      21  21 100 N12       30.41S WCI   9
FORT BRIDGER   FAIR      29  29 100 W6        30.43S WCI  23
ROCK SPRINGS   CLOUDY    31  29  92 NE5       30.41S WCI  26
6HR MIN TEMP:  29; 6HR MAX TEMP:  33;

DIXON          CLOUDY    33  32  96 CALM      30.42R
RAWLINS        CLOUDY    31  27  85 E3        30.42R
6HR MIN TEMP:  30; 6HR MAX TEMP:  34; 6HR PCP: TRACE;

SARATOGA       CLOUDY    30  30 100 NW5       30.41R WCI  25
LARAMIE        CLOUDY    25  23  92 S3        30.41R
6HR MIN TEMP:  25; 6HR MAX TEMP:  29; 6HR PCP:  0.04;

CHEYENNE       CLOUDY    31  21  66 NW12      30.41R WCI  22
6HR MIN TEMP:  31; 6HR MAX TEMP:  36; 6HR PCP: TRACE;

TORRINGTON     FAIR      30  24  78 W7        30.42R WCI  23
6HR MIN TEMP:  30; 6HR MAX TEMP:  40;

PINE BLUFFS    CLOUDY    32  27  80 N10       30.42R WCI  24

$$


USA.gov is the U.S. government's official web portal to all federal, state and local government web resources and services.